Regional Weather Roundup
Issued by NWS Green Bay, WI

Home | Current Version | Previous Version | Graphics & Text | Print | Product List | Glossary Off
Versions: 1 2 3 4 5 6 7 8 9 10 11 12 13 14 15 16 17 18 19 20 21 22 23 24 25 26 27 28 29 30 31 32 33 34 35 36 37 38 39 40 41 42 43 44 45 46 47 48 49 50

223
ASUS43 KGRB 181011
RWRGRB

NORTH-CENTRAL AND NORTHEAST WISCONSIN REGIONAL WEATHER ROUNDUP
NATIONAL WEATHER SERVICE GREEN BAY WI
400 AM CST SUN FEB 18 2018

WIZ005-009-010>012-018-019-181100-
NORTH CENTRAL WISCONSIN

CITY           SKY/WX    TMP DP  RH WIND       PRES   REMARKS
IRONWOOD       FAIR       5   1  83 SW3       30.05R
MANITOWISH WTR FAIR       1  -2  90 CALM      30.03R
ARBOR VITAE    FAIR       9   6  87 CALM      30.04R
EAGLE RIVER    FAIR       1  -3  83 SW6       30.03R WCI -11
LAND O LAKES   FAIR       2  -1  85 CALM      30.03R
RHINELANDER    FAIR       7   3  84 CALM      30.06R
PHILLIPS       FAIR       6   3  89 CALM      30.07R
ANTIGO         FAIR       6   4  91 SW3       30.09R
TOMAHAWK       FAIR       5   1  85 CALM      30.08R
MERRILL        FAIR       8   6  92 CALM      30.11R
$$

WIZ013-073-181100-
NORTHEAST WISCONSIN

CITY           SKY/WX    TMP DP  RH WIND       PRES   REMARKS
IRON MOUNTAIN  FAIR      10   5  80 CALM      30.04R
MARINETTE      FAIR      16  14  92 W3        30.14R
OCONTO         FAIR      18  15  90 W7        30.15R WCI   8
$$

WIZ017-030-035>037-045-181100-
CENTRAL WISCONSIN

CITY           SKY/WX    TMP DP  RH WIND       PRES   REMARKS
MEDFORD        FAIR       8   3  80 SW5       30.09R WCI   0
WAUSAU         FAIR      12   7  80 S3        30.10R
MOSINEE        FAIR      12  10  92 W6        30.12R WCI   3
MARSHFIELD     FAIR       9   6  88 CALM      30.09R
WISC RAPIDS    FAIR      12   9  87 CALM      30.13R
STEVENS POINT  FAIR       9   8  98 CALM      30.13R
WAUPACA        FAIR      18  14  86 CALM      30.16R
SHAWANO        FAIR      19  15  83 CALM      30.14R
CLINTONVILLE   FAIR      17  11  77 W3        30.14R
WAUTOMA        FAIR      13  10  88 CALM      30.15R
$$

WIZ038-039-048-051-181100-
FOX VALLEY

CITY           SKY/WX    TMP DP  RH WIND       PRES   REMARKS
NWS GREEN BAY  FAIR      18  14  84 W7        30.16R WCI   9
APPLETON       FAIR      19  12  73 SW6       30.14R
OSHKOSH        FAIR      19  16  88 CALM      30.15R
FOND DU LAC    FAIR      20  16  84 SW3       30.15R
$$

WIZ022-050-052-181100-
EAST CENTRAL WISCONSIN

CITY           SKY/WX    TMP DP  RH WIND       PRES   REMARKS
EPHRAIM        FAIR      16  14  93 SW5       30.11R WCI   9
WASHINGTON ISL FAIR      18  16  92 W3        30.10R
STURGEON BAY   FAIR      21  17  84 SW7       30.14R
MANITOWOC      FAIR      20  17  88 SW8       30.18R
SHEBOYGAN      FAIR      16  14  92 S7        30.18R WCI   6
$$

LMZ563-521-522-541>543-181100-
LAKESHORE

STATION/POSITION TIME  TEMP    WIND        PRES    VSBY  WAVE
                       AIR SEA DIR/SP/G                  HT/PER
                 (UTC) (F)     (DEG/KT/KT) (MB)    (MI)  (FT/S)
SHEBOYGAN LKSHOR 1000   23     250/  8/  9 1022.7R
KEWAUNEE LKSHORE 0942   22     260/  5/  7 1019.8R
NORTHPORT PIER   0940   21                 1019.3R
MENOMINEE LKSHOR 0936   21     250/  6/  7 1019.7R
$$




USA.gov is the U.S. government's official web portal to all federal, state and local government web resources and services.